Regional Weather Roundup
Issued by NWS

Home | Current Version | Previous Version | Graphics & Text | Print | Product List | Glossary On
Versions: 1 2 3 4 5 6 7 8 9 10 11 12 13 14 15 16 17 18 19 20 21 22 23 24 25 26 27 28 29 30 31 32 33 34 35 36 37 38 39 40 41 42 43 44 45 46 47 48 49 50
000
ASUS43 KLMK 242010
RWRKY
KENTUCKY REGIONAL WEATHER ROUNDUP
NATIONAL WEATHER SERVICE LOUISVILLE KY
400 PM EDT WED AUG 24 2016

NOTE "FAIR" INDICATES FEW OR NO CLOUDS BELOW 12,000 FEET
WITH NO SIGNIFICANT WEATHER AND/OR OBSTRUCTIONS TO VISIBILITY.

KYZ001>023-026-027-061>063-070>075-242100-
WESTERN AND SOUTH CENTRAL KENTUCKY

CITY           SKY/WX    TMP DP  RH WIND       PRES   REMARKS
PADUCAH        SUNNY     90  75  61 SW10      30.08F HX 100
HENDERSON      CLOUDY    90  73  58 SW14      30.06F HX  98
OWENSBORO      MOSUNNY   91  76  61 SW15      30.09F HX 102
HOPKINSVILLE   MOSUNNY   90  75  61 SW14      30.12F HX 100
BOWLING GREEN  MOSUNNY   90  72  55 S14       30.13F HX  97
GLASGOW        CLOUDY    88  73  60 SW9       30.15F HX  94
$$

KYZ024-025-028>034-038-045-046-053-242100-
NORTH CENTRAL KENTUCKY

CITY           SKY/WX    TMP DP  RH WIND       PRES   REMARKS
LOUISVILLE/SDF PTSUNNY   91  70  49 S13       30.08F HX  96
LOUISVILLE/LOU PTSUNNY   89  72  56 S12G21    30.09F HX  96
FORT KNOX      MOSUNNY   87  73  63 S16       30.10F HX  95
$$

KYZ035>037-039>044-047>052-055>060-089>105-242100-
NORTHEAST KENTUCKY

CITY           SKY/WX    TMP DP  RH WIND       PRES   REMARKS
LEXINGTON      MOSUNNY   88  71  57 S16       30.14F HX  94
COVINGTON      NOT AVBL
FRANKFORT      MOSUNNY   88  72  58 SW13      30.11F HX  94
$$

KYZ054-064>069-076>088-106>120-242100-
SOUTHEAST KENTUCKY

CITY           SKY/WX    TMP DP  RH WIND       PRES   REMARKS
JACKSON        MOSUNNY   86  70  58 CALM      30.20F HX  90
LONDON         SUNNY     87  67  51 SW7       30.20F HX  90
SOMERSET       MOSUNNY   86  68  54 SW7       30.18F
MIDDLESBORO    PTSUNNY   87  71  58 S7        30.21F HX  92
MONTICELLO     MOCLDY   N/A N/A N/A VRB6      30.19F
$$





USA.gov is the U.S. government's official web portal to all federal, state and local government web resources and services.